Location: Freemans Gardens
(41.6414°N, 83.6077°W)
Time: 02:10:00
(UTC+00:00)

Lacrosse 5 - Pass Details

Date: 29 October 2020
Orbit: 716 x 723 km, 57.0° (Epoch: 06 November)

Event Time Altitude Azimuth Distance (km) Brightness Sun altitude
Rises 23:07:27 0° 303° (WNW) 3,122 5.9 -7.2°
Reaches altitude 10° 23:11:04 10° 329° (NNW) 2,202 4.6 -7.9°
Maximum altitude 23:13:38 14° 360° (N) 1,954 4.0 -8.3°
Drops below altitude 10° 23:16:12 10° 30° (NNE) 2,203 4.0 -8.8°
Enters shadow 23:17:47 - 44° (NE) 2,554 4.2 -9.1°
